Ingeniero Juan Guillermo Villasana Airport

Jump to: basic info | weather | frequencies | runways | comments

Related pages: nearby airports | nearby navaids | notams | map

Basic information (top)

Codes: MMPC
Location: lon 20.077400, lat -98.782501, elev 7,600 ft / 2,316 m msl
Status: small_airport

Weather (top)

Current conditions for Licenciado Benito Juarez International Airport 42nm (77km) SSW (rec'd 2015/04/25 09:44Z):

MMMX 250944Z 13008KT 6SM FEW020 SCT080 SCT200 18/10 A3028 NOSIG RMK 8/532 HZY

Airport forecast for Licenciado Benito Juarez International Airport 42nm (77km) SSW (rec'd 2015/04/24 12:21Z):

TAF MMMX 241118Z 2412/2518 12005KT P6SM SCT250 TX28/2421Z TN14/2412Z 
     FM241600 20008KT P6SM SCT020 
     FM242100 23015KT P6SM SCT020CB BKN100 PROB40 2422/2502 5SM TSRA BKN020CB 
     FM250200 23005KT P6SM SCT020 BKN100 
     FM251700 22008KT P6SM SCT020

Frequencies (top)

Verify before use: may be inaccurate or out of date.

AFIS: 122.9 MHz (AFIS)

Runways (top)

03/21: 6,825 x 85 ft (2,080 x 26 m) — paved — not lighted — threshold 03 displaced 656 ft (200 m) — threshold 21 displaced 865 ft (264 m)

Latest comments (top)

No comments yet for Ingeniero Juan Guillermo Villasana Airport

More... (top)

See also NOTAMs and nearby airports and navaids, or visit the Ingeniero Juan Guillermo Villasana Airport page at the main OurAirports website..